www.pogodaiklimat.ru

Погода и климат >> Архив погоды >> Канада >> Arviat Climate


ПОГОДА в Arviat Climate

  • Прогноз погоды в Arviat Climate
  • Монитор погоды в Arviat Climate
  • Климат города

АРХИВ ПОГОДЫ в Arviat Climate

Время (UTC), дата Ветер
(напр.,м/с)
 
Видим.   Явления Облачность Т
(С)
Тd
(С)
f
(%)
Тe
(С)
Тes
(С)
Комфортность P
(гПа)
Po
(гПа)
Тmin
(С)
Tmax
(С)
R
(мм)
R24
(мм)
S
(см)
09 13.06 ЮВ 8 н/о н/о +1.3 +0.3 93 -6 -6 1019.5 1018.2
12 13.06 В 8 н/о н/о +2.3 +0.7 89 -4 -4 1020.3 1019.0 +0.9 +5.1
15 13.06 В 8 н/о н/о +2.8 +0.9 87 -4 -4 1021.1 1019.8
18 13.06 В 8 н/о н/о +3.8 +1.3 84 -3 -3 1021.3 1020.0 +0.9 +4.2
21 13.06 В 8 н/о н/о +4.9 +1.3 77 -1 -1 1021.5 1020.2
00 14.06 В 6 н/о н/о +4.2 +1.6 83 -1 -1 1021.1 1019.8 +0.9 +5.4
03 14.06 В 5 н/о н/о +2.3 +1.1 92 -3 -3 1020.9 1019.6
06 14.06 В 5 н/о н/о +1.5 +0.7 94 -4 -4 1020.7 1019.4 +0.9 +5.4 8
09 14.06 В 5 н/о н/о +1.5 +0.8 95 -4 -4 1020.2 1018.9
12 14.06 ЮВ 6 н/о н/о +3.3 +1.2 86 -2 -2 1019.5 1018.2 +1.1 +5.4
15 14.06 В 5 н/о н/о +4.8 +0.9 76 0 0 1019.0 1017.7
18 14.06 В 5 н/о н/о +5.0 +1.2 76 +1 +1 1018.6 1017.3 +1.1 +5.9
21 14.06 В 5 н/о н/о +5.1 +1.3 76 +1 +1 1017.7 1016.4
00 15.06 ЮВ 6 н/о н/о +4.5 +1.1 79 -1 -1 1016.8 1015.5 +1.1 +5.9
03 15.06 ЮВ 5 н/о н/о +2.7 +1.0 89 -3 -3 1016.1 1014.8
06 15.06 ЮВ 3 н/о н/о +1.9 +0.7 92 -3 -3 1015.3 1014.0 +1.1 +5.9
09 15.06 В 4 н/о н/о +2.3 +0.8 90 -2 -2 1014.3 1013.0
12 15.06 В 5 н/о н/о +4.0 +1.0 81 -1 -1 1013.1 1011.9 +1.5 +5.9
15 15.06 В 5 н/о н/о +3.9 +0.9 81 -1 -1 1012.0 1010.8
18 15.06 СВ 7 н/о н/о +5.5 +1.1 73 +1 +1 1011.0 1009.8 +1.5 +5.7
21 15.06 СВ 9 н/о н/о +5.0 +0.2 71 -1 -1 1009.4 1008.2
00 16.06 СВ 8 н/о н/о +3.5 +0.2 79 -3 -3 1007.7 1006.5 +1.5 +5.9
03 16.06 СВ 9 н/о н/о +2.5 -0.2 82 -4 -4 1005.8 1004.6
06 16.06 СВ 5 н/о н/о +1.8 +1.1 95 -4 -4 1006.1 1004.9 +1.5 +5.9 2 3
09 16.06 СВ 9 н/о {осадки} н/о +1.5 +1.0 96 -6 -6 1003.0 1001.8 2
12 16.06 СВ 8 н/о {осадки} н/о +1.6 +1.4 99 -6 -6 1001.0 999.8 +1.4 +5.9 5
15 16.06 СВ 6 н/о {осадки} н/о +1.8 +1.8 100 -4 -4 1000.8 999.6 8
18 16.06 СВ 7 н/о {осадки} н/о +1.8 +1.8 100 -5 -5 1000.8 999.6 +1.4 +3.0 8
21 16.06 СВ 7 н/о {осадки} н/о +1.5 +1.5 100 -6 -6 1001.2 1000.0 1
00 17.06 СВ 7 н/о {осадки} н/о +1.2 +1.2 100 -6 -6 1002.5 1001.3 +1.0 +3.0 5
03 17.06 СВ 7 н/о {осадки} н/о +0.9 +0.9 100 -6 -6 1004.1 1002.9 2
06 17.06 СВ 6 н/о {осадки} н/о +0.8 +0.8 100 -6 -6 1005.0 1003.8 +0.7 +3.0 4 13
09 17.06 С 7 н/о н/о +0.8 +0.8 100 -6 -6 1005.7 1004.5
12 17.06 С 6 н/о н/о +1.8 +1.8 100 -5 -5 1008.0 1006.8 +0.7 +3.0
15 17.06 н/о н/о +6.6 +4.6 87 1008.9 1007.7
18 17.06 С 4 н/о н/о +11.8 +6.1 68 +10 +10 1009.5 1008.3 +0.7 +11.8
21 17.06 С 3 н/о н/о +14.7 +8.3 65 +14 +14 1010.1 1008.9
00 18.06 СЗ 4 н/о н/о +17.2 +9.3 60 +17 +17 1010.2 1009.0 +0.7 +17.4
03 18.06 Ю 3 н/о н/о +7.1 +5.4 89 +4 +4 1009.9 1008.7
06 18.06 З 4 н/о н/о +11.6 +9.9 89 +9 +9 1009.9 1008.7 +0.7 +17.5 9
09 18.06 З 5 н/о н/о +10.6 +8.6 87 +8 +8 1009.7 1008.5
12 18.06 З 5 н/о н/о +13.3 +9.5 78 +11 +11 1009.6 1008.4 +6.9 +17.5
15 18.06 В 3 н/о н/о +16.6 +10.8 69 +17 +17 1008.8 1007.6
18 18.06 С 9 н/о н/о +5.9 +3.9 87 0 0 1009.8 1008.6 +5.6 +18.8
21 18.06 СВ 8 н/о н/о +6.2 +3.5 83 +1 +1 1012.6 1011.4
00 19.06 С 4 н/о н/о +6.8 +4.7 86 +3 +3 1013.8 1012.6 +4.1 +18.8
03 19.06 С 5 н/о н/о +8.4 +4.5 76 +5 +5 1015.4 1014.2
06 19.06 СЗ 2 н/о н/о +5.7 +3.7 87 +3 +3 1016.2 1015.0 +4.1 +18.8 19
09 19.06 З 4 н/о н/о +3.7 +2.6 93 -1 -1 1016.9 1015.6
12 19.06 СЗ 7 н/о н/о +5.8 +3.0 82 +1 +1 1017.6 1016.4 +3.7 +18.8
15 19.06 С 5 н/о н/о +8.3 +2.8 68 +5 +5 1018.4 1017.2
18 19.06 СЗ 4 н/о н/о +12.3 +2.8 52 +11 +11 1018.5 1017.3 +3.7 +12.6
21 19.06 Ю 6 н/о н/о +9.2 +4.9 74 +6 +6 1017.8 1016.6
00 20.06 Ю 7 н/о н/о +9.2 +5.4 77 +5 +5 1016.9 1015.7 +3.7 +12.9
03 20.06 Ю 8 н/о н/о +6.3 +3.6 83 +1 +1 1016.3 1015.1

 

Местоположение метеостанции Arviat Climate (Канада): широта 61.10 долгота -94.06 высота над уровнем моря 10 м.

В архиве по умолчанию представлена погода в Arviat Climate за последнюю неделю. Архивные данные за месяц целиком и за предыдущие месяцы, начиная с января 2011 года, Вы можете получить, выбрав интересующий диапазон дат из раскрывающегося списка и нажав кнопку "Ввод!".


*Определитесь, кто Вы:
робот инопланетянин человек

Внимание! Время в таблицах - всемирное. Для получения местного времени необходимо прибавить поправку, которая в Arviat Climate равна -6 ч.

Смотрите также архив погоды в соседних городах и на ближайших метеорологических станциях:

Погода в Arviat Airport (Канада) (1 км)
Погода в Rankin Inlet (Канада) (217 км)
Погода в Churchill Climate (Канада) (265 км)
Погода в Tadoule Lake (Канада) (362 км)
Погода в Baker Lake Airport (Канада) (370 км)
Погода в Baker Lake Climate (Канада) (372 км)
Погода в Dubawnt Lake (Канада) (462 км)
Погода в Gillam (Канада) (530 км)
Погода в Back River MAPS (Канада) (567 км)
Погода в Wager Bay (Канада) (579 км)

Пояснения к столбцам:

Ветер - указаны скорость ветра в м/с - средняя за 10 мин, порывы в срок и между сроками (в фигурных скобках) и направление, откуда дует ветер: С - северный, СВ - северо-восточный, В - восточный, ЮВ - юго-восточный, Ю - южный, ЮЗ - юго-западный, З - западный, СЗ - северо-западный.
Видимость - горизонтальная дальность видимости в метрах или километрах. При видимости от 1 до 10 км при отсутствии осадков обычно наблюдается дымка, при ухудшении видимости до 1 км и менее - туман. В сухую погоду видимость может ухудшаться дымом, пылью или мглою.
Явления - указаны атмосферные явления, наблюдавшиеся в срок или в последний час перед сроком; фигурными скобками обозначены явления, наблюдавшиеся между сроками (за 1-3 часа до срока); квадратными скобками обозначены град или гололедные отложения с указанием их диаметра в мм.
Облачность - указаны через наклонную черту общая и нижняя облачность в баллах и высота нижней границы облаков в метрах; квадратными скобками обозначены формы облаков: Ci - перистые, Cs - перисто-слоистые, Cc - перисто-кучевые, Ac - высококучевые, As - высокослоистые, Sc - слоисто-кучевые, Ns - слоисто-дождевые, Cu - кучевые, Cb - кучево-дождевые. Подробнее классификацию облаков см. в Атласе облаков (PDF).
T - Температура воздуха - температура, измеренная на высоте 2 м над землей.
Td - Температура точки росы - температура, при понижении до которой содержащийся в воздухе водяной пар достигнет насыщения.
f - Относительная влажность воздуха - влажноcть воздуха, измеренная на высоте 2 м над землей.
Te - Эффективная температура - температура, которую ощущает одетый по сезону человек в тени. Характеристика душности погоды. При расчете учитывается влияние влажности воздуха и скорости ветра на теплоощущения человека.
Tes - Эффективная температура на солнце - температура, которую ощущает человек, с поправкой на солнечный нагрев. Характеристика знойности погоды. Зависит от высоты солнца над горизонтом, облачности и скорости ветра. Ночью, в пасмурную погоду, а также при ветре 12 м/с и более поправка равна нулю.
P - Атмосферное давление - приведенное к уровню моря атмосферное давление.
Po - Атмосферное давление - измеренное на уровне метеостанции атмосферное давление.
Tmin - Минимальная температура - минимум температуры воздуха на высоте 2 м над землей.
Tmax - Максимальная температура - максимум температуры воздуха на высоте 2 м над землей.
R - Количество осадков - Количество выпавших осадков за период времени, мм. При наведении курсора мыши на число - период времени, за который выпало указанное количество осадков.
R24 - Количество осадков - Количество выпавших осадков за 24 часа, мм.
S - Снежный покров - Высота снежного покрова, см. При наведении курсора мыши на число - состояние снежного покрова и степень покрытия местности в баллах.